Location: Home
(42.5358°N, 72.7383°W)
Time: 09:31:38
(UTC-04:00)

A-11 Canister half - Pass Details

Date: 04 July 2022
Orbit: 1514 x 1685 km, 47.2° (Epoch: 15 August)

Event Time Altitude Azimuth Distance (km) Brightness Sun altitude
Rises 21:52:10 0° 232° (SW) 4,916 11.7 -12.2°
Reaches altitude 10° 21:55:19 10° 230° (SW) 3,937 11.2 -12.6°
Maximum altitude 22:05:26 74° 148° (SSE) 1,740 9.1 -13.8°
Drops below altitude 10° 22:15:29 10° 66° (ENE) 3,916 11.0 -15.0°
Sets 22:18:37 0° 65° (ENE) 4,888 11.5 -15.3°
